SAS488 ENGM-ESSA

Flight info

Callsign SAS488
Flight time N/A
Altitude 27000
Route MASEV Z183 LEGPO DCT ELTOK
Aircraft A320/M-SDE3FGHIJ1RWXYZ/ALB1

Departure

Time 2026-05-06 13:42
Airport Oslo-Gardermoen International Airport (ENGM)

Arrival

Time N/A
Airport Stockholm-Arlanda Airport (ESSA)
Time Latitude Longitude Altitude Speed Heading
2026-05-06 13:05 60.19564 11.10160 680 ft 0 kts 286°
2026-05-06 13:22 60.19562 11.10173 682 ft 2 kts 285°
2026-05-06 13:22 60.19556 11.10212 682 ft 3 kts 285°
2026-05-06 13:23 60.19551 11.10249 678 ft 2 kts 287°
2026-05-06 13:23 60.19550 11.10257 676 ft 0 kts 287°
2026-05-06 13:28 60.19582 11.10255 682 ft 15 kts 45°
2026-05-06 13:28 60.19631 11.10430 682 ft 15 kts 18°
2026-05-06 13:29 60.19741 11.10493 682 ft 18 kts 15°
2026-05-06 13:29 60.19855 11.10558 682 ft 12 kts 16°
2026-05-06 13:29 60.19936 11.10599 684 ft 11 kts
2026-05-06 13:29 60.19976 11.10493 684 ft 11 kts 286°
2026-05-06 13:30 60.19999 11.10336 682 ft 13 kts 286°
2026-05-06 13:30 60.20027 11.10146 681 ft 15 kts 286°
2026-05-06 13:30 60.20060 11.09918 682 ft 18 kts 286°
2026-05-06 13:30 60.20097 11.09652 683 ft 21 kts 285°
2026-05-06 13:31 60.20139 11.09346 682 ft 24 kts 285°
2026-05-06 13:31 60.20185 11.09021 677 ft 18 kts 294°
2026-05-06 13:31 60.20267 11.08954 679 ft 15 kts 11°
2026-05-06 13:31 60.20374 11.09018 678 ft 17 kts 17°
2026-05-06 13:32 60.20506 11.09096 679 ft 22 kts 14°
2026-05-06 13:32 60.20635 11.09112 676 ft 14 kts 314°
2026-05-06 13:32 60.20665 11.08937 678 ft 8 kts 284°
2026-05-06 13:32 60.20665 11.08933 678 ft 0 kts 284°
2026-05-06 13:40 60.20674 11.08870 676 ft 13 kts 284°
2026-05-06 13:40 60.20683 11.08668 675 ft 15 kts 227°
2026-05-06 13:40 60.20649 11.08617 676 ft 0 kts 197°
2026-05-06 13:41 60.20521 11.08538 680 ft 53 kts 197°
2026-05-06 13:42 60.19947 11.08219 672 ft 115 kts 196°
2026-05-06 13:42 60.19025 11.07700 744 ft 152 kts 195°
2026-05-06 13:42 60.18337 11.07277 1101 ft 154 kts 198°
2026-05-06 13:42 60.16996 11.06248 1929 ft 155 kts 214°
2026-05-06 13:43 60.16179 11.04683 2292 ft 173 kts 239°
2026-05-06 13:43 60.15637 11.02348 2638 ft 197 kts 248°
2026-05-06 13:43 60.15068 10.99660 3068 ft 221 kts 248°
2026-05-06 13:43 60.14447 10.96659 3510 ft 244 kts 253°
2026-05-06 13:44 60.14325 10.93230 4278 ft 252 kts 278°
2026-05-06 13:44 60.14673 10.89731 5234 ft 256 kts 287°
2026-05-06 13:44 60.15545 10.86590 6187 ft 260 kts 306°
2026-05-06 13:44 60.16741 10.83827 7076 ft 264 kts 313°
2026-05-06 13:45 60.18093 10.81263 7963 ft 269 kts 319°
2026-05-06 13:45 60.21392 10.77443 9695 ft 280 kts 341°
2026-05-06 13:45 60.23323 10.76653 10466 ft 287 kts 353°
2026-05-06 13:46 60.25407 10.76756 10770 ft 312 kts
2026-05-06 13:46 60.27525 10.77970 11115 ft 332 kts 21°
2026-05-06 13:46 60.28923 10.79477 11518 ft 340 kts 31°
2026-05-06 13:46 60.30769 10.82650 12176 ft 350 kts 47°
2026-05-06 13:47 60.32170 10.86825 12834 ft 360 kts 63°
2026-05-06 13:47 60.32946 10.91675 13459 ft 368 kts 81°
2026-05-06 13:47 60.33009 10.96865 14037 ft 373 kts 99°
2026-05-06 13:47 60.32334 11.01922 14592 ft 373 kts 118°
2026-05-06 13:48 60.31069 11.06480 15181 ft 374 kts 125°
2026-05-06 13:48 60.30064 11.11419 15757 ft 387 kts 105°
2026-05-06 13:48 60.29836 11.15691 16206 ft 395 kts 93°
2026-05-06 13:48 60.29762 11.21290 17093 ft 401 kts 95°
2026-05-06 13:49 60.29592 11.26950 17875 ft 407 kts 97°
2026-05-06 13:49 60.29365 11.32689 18395 ft 412 kts 98°
2026-05-06 13:49 60.29122 11.38427 18911 ft 417 kts 98°
2026-05-06 13:49 60.28874 11.44367 19457 ft 422 kts 98°
2026-05-06 13:50 60.28643 11.50302 19991 ft 426 kts 97°
2026-05-06 13:50 60.28421 11.56295 20546 ft 431 kts 97°
2026-05-06 13:50 60.28204 11.62354 21058 ft 435 kts 97°
2026-05-06 13:50 60.28010 11.67850 21534 ft 439 kts 97°
2026-05-06 13:51 60.27646 11.73970 22051 ft 440 kts 106°
2026-05-06 13:51 60.26949 11.79990 22552 ft 442 kts 109°
2026-05-06 13:51 60.26203 11.86134 23073 ft 447 kts 109°
2026-05-06 13:51 60.25462 11.92157 23550 ft 451 kts 109°
2026-05-06 13:52 60.24688 11.98395 23969 ft 455 kts 110°
2026-05-06 13:52 60.23920 12.04595 24422 ft 457 kts 110°
2026-05-06 13:52 60.23144 12.10847 24866 ft 460 kts 110°
2026-05-06 13:52 60.22369 12.17075 25277 ft 462 kts 110°
2026-05-06 13:53 60.21572 12.23462 25705 ft 465 kts 110°
2026-05-06 13:53 60.20780 12.29791 26128 ft 468 kts 110°
2026-05-06 13:53 60.19977 12.36162 26550 ft 470 kts 111°
2026-05-06 13:53 60.19165 12.42565 26863 ft 472 kts 111°
2026-05-06 13:54 60.18355 12.48933 26931 ft 463 kts 111°
2026-05-06 13:54 60.17675 12.55237 26936 ft 461 kts 104°
2026-05-06 13:54 60.17283 12.61548 26937 ft 460 kts 103°
2026-05-06 13:54 60.16883 12.68012 26941 ft 459 kts 103°
2026-05-06 13:55 60.16481 12.74380 26944 ft 459 kts 103°
2026-05-06 13:55 60.16075 12.80746 26947 ft 458 kts 103°
2026-05-06 13:55 60.15666 12.87124 26947 ft 458 kts 103°
2026-05-06 13:55 60.15254 12.93477 26947 ft 458 kts 103°
2026-05-06 13:56 60.14840 12.99832 26947 ft 458 kts 103°
2026-05-06 13:56 60.14423 13.06176 26948 ft 458 kts 103°
2026-05-06 13:56 60.14011 13.12449 26949 ft 458 kts 103°
2026-05-06 13:56 60.13591 13.18798 26939 ft 458 kts 103°
2026-05-06 13:57 60.13165 13.25149 26943 ft 458 kts 104°
2026-05-06 13:57 60.12734 13.31488 26946 ft 458 kts 104°
2026-05-06 13:57 60.12295 13.37905 26949 ft 458 kts 104°
2026-05-06 13:57 60.11861 13.44223 26912 ft 457 kts 104°
2026-05-06 13:58 60.11425 13.50543 26933 ft 457 kts 104°
2026-05-06 13:58 60.10987 13.56860 26942 ft 457 kts 104°
2026-05-06 13:58 60.10541 13.63249 26949 ft 457 kts 104°
2026-05-06 13:58 60.10094 13.69584 26955 ft 457 kts 104°
2026-05-06 13:59 60.09643 13.75901 26960 ft 457 kts 104°
2026-05-06 13:59 60.09191 13.82191 26960 ft 456 kts 104°
2026-05-06 13:59 60.08736 13.88497 26960 ft 456 kts 104°
2026-05-06 13:59 60.08281 13.94787 26963 ft 456 kts 104°
2026-05-06 14:00 60.07823 14.01073 26964 ft 456 kts 105°
2026-05-06 14:00 60.07361 14.07354 26962 ft 456 kts 105°
2026-05-06 14:00 60.06896 14.13642 26930 ft 456 kts 105°
2026-05-06 14:00 60.06428 14.19939 26937 ft 456 kts 105°
2026-05-06 14:01 60.05956 14.26246 26945 ft 456 kts 105°
2026-05-06 14:01 60.05488 14.32457 26948 ft 456 kts 105°
2026-05-06 14:01 60.05009 14.38736 26953 ft 456 kts 105°
2026-05-06 14:01 60.04524 14.45025 26953 ft 456 kts 105°
2026-05-06 14:02 60.04038 14.51305 26958 ft 456 kts 105°
2026-05-06 14:02 60.03550 14.57594 26960 ft 456 kts 105°
2026-05-06 14:02 60.03062 14.63876 26960 ft 456 kts 105°
2026-05-06 14:02 60.02571 14.70159 26962 ft 456 kts 105°
2026-05-06 14:03 60.02076 14.76445 26935 ft 456 kts 105°
2026-05-06 14:03 60.01580 14.82710 26938 ft 456 kts 106°
2026-05-06 14:03 60.01080 14.88967 26946 ft 456 kts 106°